Regional Weather Roundup
Issued by NWS

Home | Current Version | Previous Version | Graphics & Text | Print | Product List | Glossary On
Versions: 1 2 3 4 5 6 7 8 9 10 11 12 13 14 15 16 17 18 19 20 21 22 23 24 25 26 27 28 29 30 31 32 33 34 35 36 37 38 39 40 41 42 43 44 45 46 47 48 49 50
000
ASUS45 KBOU 270710
RWRCO

WEATHER ROUNDUP FOR COLORADO
NATIONAL WEATHER SERVICE DENVER/BOULDER CO
100 AM MDT FRI APR 27 2018

NOTE: "FAIR" INDICATES FEW OR NO CLOUDS BELOW 12000 FEET WITH NO
SIGNIFICANT WEATHER AND/OR OBSTRUCTIONS TO VISIBILITY.

COZ001>005-013-030-031-270800-
...NORTHWEST COLORADO...

CITY           SKY/WX    TMP DP  RH WIND       PRES   REMARKS
CRAIG          FAIR      35  27  72 CALM      30.24S
HAYDEN         FAIR      36  23  59 SE7       30.26S
MEEKER         FAIR      36  23  59 NE6       30.24R
RANGELY        FAIR      39  25  58 CALM      30.18S
RABBIT EARS PA FAIR      34  12  40 CALM      30.38F
STEAMBOAT SPGS FAIR      37  24  57 CALM      30.27R
WALDEN         FAIR      23  12  63 SE7       30.33S WCI  15
$$

COZ006>008-011-270800-
...WEST CENTRAL VALLEYS...

CITY           SKY/WX    TMP DP  RH WIND       PRES   REMARKS
GRAND JUNCTION FAIR      53  22  29 SE5       30.12R
MONTROSE       FAIR      44  22  41 SE9       30.19R
EAGLE          FAIR      37  19  48 SE5       30.28R
RIFLE          FAIR      43  25  49 CALM      30.19R
DELTA          FAIR      51  19  28 NE7       30.16R
NUCLA          NOT AVBL
$$

COZ017>023-064>068-270800-
...SOUTHWEST COLORADO...

CITY           SKY/WX    TMP DP  RH WIND       PRES   REMARKS
DURANGO        FAIR      40   8  26 NE12      30.18R
CORTEZ         FAIR      38  10  31 NE9       30.14S
PAGOSA SPRINGS FAIR      41  10  28 CALM      30.27R
TELLURIDE      FAIR      38  16  41 SE6       30.32S
WOLF CREEK PAS FAIR      34   9  35 E5        30.50S WCI  30
$$

COZ009-010-012-014-032>034-037-058>063-270800-
...CENTRAL COLORADO...

CITY           SKY/WX    TMP DP  RH WIND       PRES   REMARKS
ASPEN          FAIR      39  21  48 S8        30.27S
BUENA VISTA    FAIR      32  26  76 SW3       30.35S
COPPER MTN     NOT AVBL
BERTHOUD PASS  FAIR      27  16  63 NW14      30.44S WCI  15
COTTONWOOD PAS FAIR      37  27  65 N3        30.38F
GUNNISON       FAIR      36  19  50 CALM      30.29R
GRANBY           N/A    N/A N/A N/A MISG        N/A
KREMMLING      FAIR      34  21  60 CALM      30.32R
LEADVILLE      FAIR      25  18  74 CALM      30.38S
MONARCH PASS   FAIR      34   9  35 NW5       30.54F WCI  30
SALIDA         FAIR      38  27  63 SW6       30.41S
SUNLIGHT       FAIR      32  14  47 E5        30.42S WCI  27
WILKERSON PASS FAIR      28  21  74 W10       30.43F WCI  19
$$

COZ069>075-270800-
...SAN LUIS VALLEY/SANGRE DE CRISTO MOUNTAINS...

CITY           SKY/WX    TMP DP  RH WIND       PRES   REMARKS
ALAMOSA        FAIR      32  22  66 SE10      30.29S WCI  24
DEL NORTE      FAIR      38  18  44 W10       30.30S
LA VETA PASS   FAIR      32  23  69 SW5       30.49S WCI  27
SAGUACHE       NOT AVBL
$$

COZ035-036-038>040-270800-
...NORTHERN COLORADO FRONT RANGE...

CITY           SKY/WX    TMP DP  RH WIND       PRES   REMARKS
DENVER INTL AP FAIR      38  26  62 S12       30.23F
AURORA         CLEAR     38  26  61 S13       30.24F
FRONT RANGE AP FAIR      38  29  69 S12       30.24F
ERIE MUNI ARPT FAIR      37  32  80 S5        30.28F
BOULDER MUN AP FAIR      43  30  61 CALM      30.23F
CENTENNIAL     FAIR      41  27  57 S12       30.24F
BROOMFIELD     FAIR      43  28  56 CALM      30.24F
FORT COLLINS   FAIR      44  30  57 CALM      30.23F
LONGMONT       FAIR      41  30  66 W5        30.24F
$$

COZ041-046-047-076>085-087-088-270800-
...PIKES PEAK/PALMER DIVIDE AND SOUTHERN FOOTHILLS...

CITY           SKY/WX    TMP DP  RH WIND       PRES   REMARKS
COLO. SPRINGS  FAIR      36  25  64 CALM      30.29F
A. F. ACADEMY  FAIR      28  23  83 N9        30.29F WCI  19
SCHRIEVER AFB  NOT AVBL
CHEYENNE MTN   FAIR      40  25  53 CALM      30.25S
ELLICOTT         N/A    N/A N/A N/A CALM      30.28F
FALCON         FAIR      34  22  61 W5        30.31F WCI  30
FORT CARSON    FAIR      43  23  45 N3        30.27F
LIMON          FAIR      26  23  88 N5        30.25F WCI  20
MONUMENT HILL  FAIR      32  23  69 S10       30.30F WCI  24
CANON CITY     FAIR      43  30  61 NW5       30.28S
WALSENBURG     NOT AVBL
TRINIDAD       FAIR      33  23  66 W10       30.29F WCI  25
$$

COZ042>045-048>051-090-091-270800-
...NORTHEAST COLORADO...

CITY           SKY/WX    TMP DP  RH WIND       PRES   REMARKS
GREELEY ARPT   FAIR      33  25  72 N7        30.23F WCI  27
AKRON          FAIR      39  28  64 SW12      30.21S
BURLINGTON     FAIR      34  28  79 W10       30.22S WCI  26
WRAY           FAIR      36  32  87 W6        30.19F
YUMA           FAIR      34  28  80 W9        30.20S WCI  26
STERLING       NOT AVBL
HOLYOKE        FAIR      37  32  81 W8        30.18F
FORT MORGAN    FAIR      38  24  57 W6        30.22S
$$

COZ086-089-092>099-270800-
...SOUTHEAST COLORADO...

CITY           SKY/WX    TMP DP  RH WIND       PRES   REMARKS
PUEBLO         FAIR      39  24  55 E3        30.26F
LA JUNTA       FAIR      42  28  57 W10       30.24F
LAMAR          FAIR      35  29  78 S9        30.22S WCI  28
SPRINGFIELD      N/A     32  25  75 W7        30.24F WCI  26
$$



USA.gov is the U.S. government's official web portal to all federal, state and local government web resources and services.